STARLINK-1510 (45784 NORAD) Tracking and Keplerian Element Data

This shows tracking and keplerian element data for the satellite.

Feedback or suggestion? Click here.




ElementValue
Catalog45784
NameSTARLINK-1510
Epoch Orbit182
Epoch Day191.91670139
Epoch Year2020
RAAN166.098
Inclination53.0012
Eccentricity0.0001027
Argument of Perigee86.8231
Mean Anonmoly49.8561
Mean Motion15.62781285
Decay Rate0.00029034
L11 45784U 20038BG 20191.91670139 .00029034 00000-0 32142-3 0 9993
L22 45784 53.0012 166.0980 0001027 86.8231 49.8561 15.62781285 1828

Live tracking and technical data element details for STARLINK-1510 (NORAD 45784). STARLINK-1510 can be tracked NOW for your location showing map with azimuth and elevation plus other details from your city location.

Track the satellite on the map from your city or location and see movement details for azimuth, elevation, latitude, longitude, range, height, and movement on the map or in text.







IsCatalogInMostPopularTable: catalog: 45784, numindb: 7
Update: records affected: 1



GetName: 45784 STARLINK-1510

Hit Count: updated at: Fri, 10 Jul 2020 15:35:10 GMT